Location: Newark
(50.1751°N, 5.6239°W)
Time: 10:34:57
(UTC+00:00)

Nauka - Pass Details

Date: 23 September 2021
Orbit: 417 x 423 km, 51.6° (Epoch: 23 October)

Event Time Altitude Azimuth Distance (km) Brightness Sun altitude
Rises 21:14:56 0° 282° (WNW) 2,367 ? -27.3°
Reaches altitude 10° 21:17:02 10° 284° (WNW) 1,503 ? -27.6°
Enters shadow 21:18:11 20° 286° (WNW) 1,047 ? -27.7°
